Location: Newark
(40.9833°N, 0.0333°W)
Time: 02:26:02
(UTC+00:00)

Altair - Pass Details

Date: 02 November 2020
Orbit: 1502 x 1682 km, 47.2° (Epoch: 02 December)

Event Time Altitude Azimuth Distance (km) Brightness Sun altitude
Rises 10:00:33 0° 298° (WNW) 4,742 9.6 29.2°
Reaches altitude 10° 10:03:37 10° 295° (WNW) 3,779 9.2 29.4°
Maximum altitude 10:13:03 62° 218° (SW) 1,788 8.6 30.2°
Drops below altitude 10° 10:22:49 10° 140° (SE) 3,900 11.0 31.0°
Sets 10:26:02 0° 137° (SE) 4,901 11.1 31.2°
